Vorticity
5 5 5 4 5 5 5 5 6 7 7 7 8 7 6 5 5 5 6 6 7 7 7 8 7 7 7 8 7 7 6 7 7
5 5 5 5 5 5 5 5 6 7 7 7 8 7 7 8 7 6 6 7 8 8 9 8 7 7 7 7 7 7 7 7 7
6 6 5 5 5 5 5 5 5 6 7 7 8 8 8 6 9 7 7 7 7 8 7 7 7 6 6 7 7 6 7 6 6
6 6 5 5 5 5 5 5 5 6 7 7 8 8 8 8 7 7 6 7 7 6 6 7 7 6 7 6 6 6 6 6 7
5 5 4 5 6 5 6 5 5 6 6 7 8 7 7 8 8 6 6 6 7 5 5 6 6 5 5 6 6 6 6 6 6
6 5 5 4 5 5 5 5 5 6 6 6 7 7 7 7 6 6 5 5 4 4 5 5 5 5 5 5 5 5 5 5 5
5 5 5 5 5 5 5 5 6 6 6 6 6 6 6 6 6 5 4 5 4 4 5 4 4 5 5 4 5 5 5 4 5
6 6 6 6 6 5 5 6 6 6 5 5 6 6 6 6 5 5 5 4 4 5 4 5 5 4 4 5 4 4 4 4 4
8 7 7 7 6 5 5 5 5 5 5 6 5 6 5 6 5 4 5 5 5 4 5 4 4 4 4 4 4 4 4 4 5
9 8 6 6 5 5 5 6 6 4 4 5 6 6 5 5 5 4 5 6 5 4 4 4 4 4 4 4 4 5 4 5 5
8 7 6 6 6 6 5 5 6 5 4 5 6 6 5 5 4 6 6 5 6 4 4 4 4 4 4 4 5 5 5 5 5
8 8 7 7 8 7 6 6 5 5 5 4 5 6 6 4 5 5 6 6 7 6 4 4 4 5 5 6 5 5 5 6 6
7 9 7 7 8 9 7 6 6 6 5 5 5 6 5 5 5 4 4 5 6 7 6 4 4 5 5 6 6 6 6 6 5
7 7 8 7 8 9 8 7 5 5 7 7 5 6 5 5 5 5 5 5 6 7 4 4 4 4 5 6 5 5 5 5 5
6 6 6 7 7 8 8 7 7 5 6 6 7 6 6 7 6 5 5 4 6 3 2 3 4 4 4 5 5 5 5 4 5
8 8 6 6 7 7 8 8 7 8 8 6 6 6 6 5 6 5 5 2 6 3 3 4 4 5 5 5 6 5 5 5 4
6 6 8 6 6 6 7 8 9 8 7 6 6 6 6 5 6 5 4 10 0 -1 3 4 6 5 5 5 6 5 5 4 5
5 8 7 8 6 5 6 8 9 8 9 9 5 6 6 7 6 5 6 6 5 10 7 6 5 5 5 5 5 4 6 5 5
11 9 10 7 6 6 6 6 7 8 8 8 7 7 9 6 9 8 8 7 6 6 5 5 5 7 6 5 5 6 6 6 6
12 -7 6 10 7 6 6 6 7 7 7 7 8 8 7 7 6 6 7 6 6 5 5 6 6 7 7 6 6 6 6 6 5
Height
3173 3175 3176 3177 3178 3180 3180 3181 3180 3180 3179 3179 3179 3180 3181 3183 3185 3185 3186 3187 3187 3187 3187 3188 3188 3189 3189 3190 3190 3190 3189 3190 3190
3173 3174 3176 3177 3178 3179 3180 3181 3181 3180 3180 3180 3180 3181 3183 3185 3185 3186 3187 3187 3187 3187 3189 3189 3190 3191 3191 3191 3191 3191 3192 3191 3191
3171 3173 3174 3176 3177 3178 3179 3180 3181 3182 3181 3181 3181 3182 3183 3184 3186 3186 3186 3187 3187 3188 3189 3190 3191 3192 3193 3193 3193 3193 3193 3192 3192
3170 3172 3173 3175 3176 3177 3179 3180 3181 3182 3183 3182 3183 3184 3185 3185 3186 3186 3186 3187 3188 3189 3190 3191 3192 3193 3194 3194 3194 3194 3194 3194 3194
3169 3170 3172 3174 3176 3178 3179 3180 3181 3182 3183 3184 3185 3185 3185 3186 3187 3187 3188 3189 3190 3190 3192 3193 3194 3194 3195 3195 3195 3196 3196 3195 3195
3168 3170 3171 3172 3174 3176 3178 3180 3182 3183 3183 3184 3185 3186 3186 3187 3187 3188 3189 3191 3192 3192 3193 3194 3194 3195 3196 3196 3196 3196 3196 3195 3195
3167 3169 3171 3171 3172 3173 3175 3178 3180 3182 3183 3184 3185 3186 3186 3187 3189 3190 3190 3191 3193 3194 3194 3195 3195 3196 3196 3196 3196 3197 3197 3197 3197
3164 3165 3168 3171 3173 3175 3175 3175 3177 3180 3182 3184 3185 3186 3187 3188 3189 3191 3191 3191 3194 3194 3195 3196 3197 3197 3198 3199 3198 3198 3198 3197 3197
3163 3164 3166 3168 3170 3172 3175 3175 3174 3176 3179 3182 3184 3186 3186 3188 3190 3191 3192 3192 3194 3194 3195 3195 3197 3197 3198 3198 3198 3198 3198 3197 3197
3160 3163 3165 3167 3168 3170 3172 3173 3176 3174 3177 3179 3182 3184 3185 3187 3189 3191 3192 3193 3194 3194 3195 3195 3195 3196 3196 3197 3197 3197 3197 3197 3197
3158 3160 3162 3165 3166 3168 3170 3172 3172 3173 3176 3177 3180 3183 3184 3186 3188 3190 3192 3192 3193 3193 3194 3196 3196 3197 3198 3197 3197 3197 3196 3196 3196
3155 3158 3160 3163 3164 3166 3168 3169 3170 3171 3175 3177 3178 3181 3183 3185 3186 3188 3189 3191 3192 3193 3193 3194 3195 3195 3196 3197 3197 3197 3197 3197 3196
3151 3154 3156 3160 3163 3165 3167 3168 3168 3170 3173 3176 3177 3179 3182 3183 3185 3186 3187 3188 3190 3191 3192 3192 3194 3194 3195 3196 3196 3195 3195 3195 3194
3146 3150 3152 3155 3159 3162 3164 3167 3167 3167 3170 3175 3177 3178 3180 3181 3183 3185 3185 3187 3187 3189 3190 3191 3191 3192 3193 3193 3192 3193 3193 3192 3192
3142 3145 3148 3151 3155 3157 3160 3163 3164 3166 3167 3170 3175 3177 3179 3181 3181 3182 3183 3184 3184 3186 3187 3188 3189 3190 3190 3191 3190 3190 3189 3189 3189
3137 3141 3143 3146 3149 3153 3156 3159 3160 3164 3166 3167 3171 3173 3175 3178 3178 3179 3181 3182 3182 3183 3185 3186 3187 3188 3187 3187 3188 3187 3187 3186 3186
3132 3136 3139 3141 3144 3147 3151 3154 3157 3161 3163 3163 3167 3169 3173 3174 3175 3177 3178 3178 3179 3180 3183 3184 3186 3185 3185 3185 3186 3185 3184 3182 3183
3126 3130 3133 3136 3139 3142 3145 3149 3153 3157 3159 3161 3162 3165 3168 3171 3173 3174 3176 3177 3178 3180 3180 3180 3182 3182 3182 3182 3182 3182 3182 3180 3179
3120 3124 3128 3131 3134 3137 3140 3144 3147 3151 3154 3156 3158 3160 3165 3166 3169 3171 3173 3174 3175 3175 3176 3178 3178 3179 3180 3179 3179 3178 3177 3178 3178
3113 3117 3121 3126 3128 3132 3135 3138 3142 3145 3148 3151 3154 3156 3159 3161 3164 3167 3169 3169 3170 3170 3171 3173 3175 3175 3175 3174 3174 3174 3173 3172 3171